This is the latest recevied weather packets stored in our database for station/object W8KVG. If no packets are shown the sender has not sent any weather packets the latest 10 day(s).
| Time | Temp. | Humidity | Pressure | Rain* | Wind** | Luminosity | Snow |
|---|---|---|---|---|---|---|---|
| 1778033333 | 17.78° C | 72% | 1007.2 hPa | 0 mm | - | 0 W/m² | - |
| 1778033031 | 18.33° C | 70% | 1007 hPa | 0 mm | - | 0 W/m² | - |
| 1778032728 | 18.89° C | 65% | 1006.8 hPa | 0 mm | - | 0 W/m² | - |
| 1778032426 | 18.89° C | 61% | 1006.9 hPa | 0 mm | - | 0 W/m² | - |
| 1778032122 | 18.89° C | 59% | 1007 hPa | 0 mm | - | 0 W/m² | - |
| 1778031819 | 19.44° C | 58% | 1006.8 hPa | 0 mm | - | 0 W/m² | - |
| 1778031515 | 19.44° C | 59% | 1006.6 hPa | 0 mm | - | 0 W/m² | - |
| 1778031213 | 20° C | 57% | 1006.8 hPa | 0 mm | - | 0 W/m² | - |
| 1778030909 | 19.44° C | 57% | 1006.8 hPa | 0 mm | - | 0 W/m² | - |
| 1778030606 | 19.44° C | 57% | 1006.6 hPa | 0 mm | - | 0 W/m² | - |
| 1778030304 | 20° C | 57% | 1006.5 hPa | 0 mm | - | 0 W/m² | - |
| 1778030000 | 20° C | 56% | 1006.6 hPa | 0 mm | - | 0 W/m² | - |
| 1778029698 | 20° C | 56% | 1006.6 hPa | 0 mm | - | 0 W/m² | - |
| 1778029395 | 20° C | 56% | 1006.6 hPa | 0 mm | - | 0 W/m² | - |
| 1778029092 | 20° C | 55% | 1006.6 hPa | 0 mm | - | 0 W/m² | - |
| 1778028789 | 20° C | 55% | 1006.5 hPa | 0 mm | - | 0 W/m² | - |
| 1778028485 | 20° C | 55% | 1006.6 hPa | 0 mm | - | 0 W/m² | - |
| 1778028183 | 20° C | 56% | 1006.5 hPa | 0 mm | - | 0 W/m² | - |
| 1778027878 | 20° C | 57% | 1006.4 hPa | 0 mm | - | 0 W/m² | - |
| 1778027575 | 20° C | 57% | 1006.5 hPa | 0 mm | - | 0 W/m² | - |
| 1778027271 | 20.56° C | 56% | 1006.6 hPa | 0 mm | - | 1 W/m² | - |
| 1778026968 | 20.56° C | 55% | 1006.5 hPa | 0 mm | - | 1 W/m² | - |
| 1778026663 | 20.56° C | 56% | 1006.5 hPa | 0 mm | - | 1 W/m² | - |
| 1778026361 | 20.56° C | 56% | 1006.5 hPa | 0 mm | - | 2 W/m² | - |
| 1778026058 | 20.56° C | 56% | 1007 hPa | 0 mm | - | 2 W/m² | - |
* Rain latest hour (hover to see other rain measurements)
** Current wind speed in m/s (hover to see current wind gust speed)